• In Hungary
  • List of Countries
  • For 7 days
  • Water Temperature
  • Satellite Maps
  • Weather Map
  • News
  • Weather Widgets
  • user-avatar
    Login

    Hourly Weather Pepelevka

    Today, 24 May, Thursday

    Time Temperature Precipitation Wind Pressure Humidity
    00:00 +14°C° 0.4 mm 1 mps 750 mmHg 92%
    01:00 +14°C° 0.4 mm 1 mps 750 mmHg 93%
    02:00 +13°C° 0.4 mm 1 mps 750 mmHg 93%
    03:00 +13°C° 0.1 mm 1 mps 750 mmHg 94%
    04:00 +14°C° 0.1 mm 1 mps 750 mmHg 94%
    05:00 +14°C° 0.1 mm 1 mps 750 mmHg 94%
    06:00 +15°C° 0.1 mm 1 mps 750 mmHg 90%
    07:00 +18°C° 0.1 mm 1 mps 750 mmHg 86%
    08:00 +19°C° 0.1 mm 1 mps 750 mmHg 83%
    09:00 +20°C° 0.5 mm 1 mps 750 mmHg 77%
    10:00 +20°C° 0.5 mm 2 mps 750 mmHg 71%
    11:00 +23°C° 0.5 mm 2 mps 750 mmHg 65%
    12:00 +23°C° 0.4 mm 2 mps 750 mmHg 64%
    13:00 +23°C° 0.4 mm 2 mps 750 mmHg 63%
    14:00 +24°C° 0.4 mm 2 mps 750 mmHg 62%
    15:00 +23°C° 0.7 mm 2 mps 750 mmHg 66%
    16:00 +22°C° 0.7 mm 3 mps 750 mmHg 71%
    17:00 +21°C° 0.7 mm 3 mps 749 mmHg 76%
    18:00 +20°C° 0.3 mm 3 mps 750 mmHg 80%
    19:00 +18°C° 0.3 mm 3 mps 750 mmHg 85%
    20:00 +17°C° 0.3 mm 3 mps 750 mmHg 90%
    21:00 +16°C° 0 mm 3 mps 750 mmHg 90%
    22:00 +16°C° 0 mm 3 mps 750 mmHg 90%
    23:00 +14°C° 0 mm 3 mps 751 mmHg 91%

    Tomorrow, 25 May, Friday

    Time Temperature Precipitation Wind Pressure Humidity
    00:00 +14°C° 0 mm 3 mps 751 mmHg 91%
    01:00 +13°C° 0 mm 3 mps 751 mmHg 91%
    02:00 +13°C° 0 mm 3 mps 752 mmHg 91%
    03:00 +13°C° 0 mm 3 mps 752 mmHg 92%
    04:00 +13°C° 0 mm 3 mps 752 mmHg 92%
    05:00 +13°C° 0 mm 4 mps 753 mmHg 92%
    06:00 +14°C° 0 mm 4 mps 753 mmHg 88%
    07:00 +15°C° 0 mm 4 mps 753 mmHg 85%
    08:00 +17°C° 0 mm 5 mps 754 mmHg 81%
    09:00 +19°C° 0 mm 5 mps 754 mmHg 76%
    10:00 +20°C° 0 mm 5 mps 754 mmHg 71%
    11:00 +21°C° 0 mm 5 mps 755 mmHg 66%
    12:00 +21°C° 0 mm 5 mps 755 mmHg 63%
    13:00 +21°C° 0 mm 5 mps 755 mmHg 60%
    14:00 +21°C° 0 mm 5 mps 755 mmHg 57%
    15:00 +21°C° 0 mm 5 mps 755 mmHg 59%
    16:00 +20°C° 0 mm 4 mps 755 mmHg 61%
    17:00 +20°C° 0 mm 4 mps 755 mmHg 63%
    18:00 +18°C° 0 mm 4 mps 756 mmHg 68%
    19:00 +15°C° 0 mm 4 mps 756 mmHg 72%
    20:00 +14°C° 0 mm 3 mps 756 mmHg 76%
    21:00 +13°C° 0 mm 3 mps 757 mmHg 77%
    22:00 +12°C° 0 mm 3 mps 757 mmHg 77%
    23:00 +11°C° 0 mm 3 mps 758 mmHg 78%

    Day after tomorrow, 26 May, Saturday

    Time Temperature Precipitation Wind Pressure Humidity
    00:00 +10°C° 0 mm 3 mps 758 mmHg 79%
    01:00 +10°C° 0 mm 3 mps 759 mmHg 80%
    02:00 +9°C° 0 mm 3 mps 759 mmHg 81%
    03:00 +9°C° 0 mm 3 mps 759 mmHg 81%
    04:00 +9°C° 0 mm 3 mps 760 mmHg 80%
    05:00 +9°C° 0 mm 3 mps 760 mmHg 80%
    06:00 +10°C° 0 mm 3 mps 760 mmHg 75%
    07:00 +12°C° 0 mm 3 mps 761 mmHg 71%
    08:00 +14°C° 0 mm 3 mps 761 mmHg 67%
    09:00 +16°C° 0 mm 3 mps 761 mmHg 63%
    10:00 +17°C° 0 mm 4 mps 761 mmHg 59%
    11:00 +18°C° 0 mm 4 mps 761 mmHg 55%
    12:00 +19°C° 0 mm 4 mps 761 mmHg 54%
    13:00 +19°C° 0 mm 4 mps 761 mmHg 53%
    14:00 +20°C° 0 mm 4 mps 761 mmHg 52%
    15:00 +19°C° 0 mm 4 mps 760 mmHg 54%
    16:00 +19°C° 0 mm 3 mps 760 mmHg 57%
    17:00 +19°C° 0 mm 3 mps 760 mmHg 60%
    18:00 +17°C° 0 mm 3 mps 760 mmHg 65%
    19:00 +16°C° 0 mm 2 mps 760 mmHg 69%
    20:00 +14°C° 0 mm 2 mps 760 mmHg 74%
    21:00 +13°C° 0 mm 2 mps 760 mmHg 76%
    22:00 +12°C° 0 mm 2 mps 760 mmHg 78%
    23:00 +10°C° 0 mm 2 mps 761 mmHg 80%

    27 May, Sunday

    Time Temperature Precipitation Wind Pressure Humidity
    00:00 +10°C° 0 mm 2 mps 761 mmHg 82%
    01:00 +9°C° 0 mm 2 mps 761 mmHg 83%
    02:00 +9°C° 0 mm 2 mps 761 mmHg 84%
    03:00 +9°C° 0 mm 2 mps 761 mmHg 85%
    04:00 +9°C° 0 mm 2 mps 761 mmHg 85%
    05:00 +9°C° 0 mm 2 mps 760 mmHg 85%
    06:00 +12°C° 0 mm 2 mps 760 mmHg 80%
    07:00 +14°C° 0 mm 2 mps 760 mmHg 74%
    08:00 +15°C° 0 mm 2 mps 760 mmHg 68%
    09:00 +16°C° 0 mm 2 mps 760 mmHg 64%
    10:00 +18°C° 0 mm 2 mps 760 mmHg 59%
    11:00 +19°C° 0 mm 2 mps 760 mmHg 55%
    12:00 +19°C° 0 mm 2 mps 759 mmHg 54%
    13:00 +20°C° 0 mm 2 mps 759 mmHg 53%
    14:00 +20°C° 0 mm 2 mps 759 mmHg 52%
    15:00 +20°C° 0 mm 2 mps 758 mmHg 53%
    16:00 +21°C° 0 mm 1 mps 758 mmHg 54%
    17:00 +21°C° 0 mm 1 mps 757 mmHg 56%
    18:00 +19°C° 0 mm 1 mps 757 mmHg 62%
    19:00 +16°C° 0 mm 1 mps 757 mmHg 68%
    20:00 +14°C° 0 mm 1 mps 757 mmHg 74%
    21:00 +14°C° 0 mm 1 mps 757 mmHg 76%
    22:00 +13°C° 0 mm 1 mps 757 mmHg 78%
    23:00 +12°C° 0 mm 1 mps 757 mmHg 80%

    28 May, Monday

    Time Temperature Precipitation Wind Pressure Humidity
    00:00 +12°C° 0 mm 1 mps 757 mmHg 82%
    01:00 +12°C° 0 mm 1 mps 757 mmHg 83%
    02:00 +11°C° 0 mm 1 mps 757 mmHg 84%
    03:00 +12°C° 0 mm 1 mps 757 mmHg 84%
    04:00 +12°C° 0 mm 1 mps 757 mmHg 84%
    05:00 +12°C° 0 mm 1 mps 757 mmHg 85%
    06:00 +14°C° 0 mm 1 mps 757 mmHg 80%
    07:00 +16°C° 0 mm 2 mps 757 mmHg 75%
    08:00 +18°C° 0 mm 2 mps 757 mmHg 70%
    09:00 +19°C° 0 mm 2 mps 757 mmHg 66%
    10:00 +21°C° 0 mm 2 mps 757 mmHg 63%
    11:00 +23°C° 0 mm 2 mps 757 mmHg 60%
    12:00 +24°C° 0 mm 2 mps 757 mmHg 58%
    13:00 +25°C° 0 mm 2 mps 757 mmHg 57%
    14:00 +25°C° 0 mm 2 mps 757 mmHg 56%
    15:00 +25°C° 0 mm 2 mps 757 mmHg 58%
    16:00 +25°C° 0 mm 2 mps 757 mmHg 61%
    17:00 +25°C° 0 mm 2 mps 757 mmHg 63%
    18:00 +23°C° 0 mm 2 mps 757 mmHg 68%
    19:00 +20°C° 0 mm 2 mps 757 mmHg 73%
    20:00 +18°C° 0 mm 2 mps 757 mmHg 78%
    21:00 +17°C° 0 mm 3 mps 757 mmHg 78%
    22:00 +16°C° 0 mm 3 mps 757 mmHg 79%
    23:00 +13°C° 0 mm 3 mps 758 mmHg 80%

    29 May, Tuesday

    Time Temperature Precipitation Wind Pressure Humidity
    00:00 +13°C° 0 mm 3 mps 758 mmHg 80%
    01:00 +12°C° 0 mm 3 mps 758 mmHg 80%
    02:00 +12°C° 0 mm 2 mps 758 mmHg 80%
    03:00 +12°C° 0 mm 2 mps 758 mmHg 81%
    04:00 +13°C° 0 mm 2 mps 758 mmHg 83%
    05:00 +13°C° 0 mm 2 mps 758 mmHg 84%
    06:00 +14°C° 0 mm 2 mps 758 mmHg 79%
    07:00 +16°C° 0 mm 2 mps 758 mmHg 75%
    08:00 +18°C° 0 mm 2 mps 758 mmHg 70%
    09:00 +21°C° 0 mm 1 mps 758 mmHg 66%
    10:00 +22°C° 0 mm 1 mps 758 mmHg 63%
    11:00 +24°C° 0 mm 1 mps 757 mmHg 59%
    12:00 +24°C° 0 mm 1 mps 757 mmHg 56%
    13:00 +25°C° 0 mm 1 mps 757 mmHg 54%
    14:00 +23°C° 0 mm 0 mps 756 mmHg 51%
    15:00 +25°C° 0 mm 1 mps 756 mmHg 53%
    16:00 +25°C° 0 mm 1 mps 755 mmHg 55%
    17:00 +25°C° 0 mm 1 mps 755 mmHg 58%
    18:00 +23°C° 0 mm 1 mps 755 mmHg 64%
    19:00 +21°C° 0 mm 1 mps 754 mmHg 69%
    20:00 +20°C° 0 mm 1 mps 754 mmHg 75%
    21:00 +18°C° 0 mm 2 mps 754 mmHg 78%
    22:00 +17°C° 0 mm 2 mps 754 mmHg 81%
    23:00 +16°C° 0 mm 2 mps 753 mmHg 84%
    Show more